EW6960 Weather Reports


time (UTC)temp
C
wind
direction
speed
KPH
gust
KPH
rain 1hr
cm
rain 24hr
cm
rain mn
cm
humidity
%
barometer
mb
20260505190003 13 240 3.2 9.7 0.00 0.00 0.00 68 1013.2
20260505185003 13 256 3.2 9.7 0.00 0.00 0.00 66 1013.0
20260505184003 13 245 1.6 6.4 0.00 0.00 0.00 66 1012.8
20260505183003 13 246 1.6 6.4 0.00 0.00 0.00 65 1012.9
20260505182003 13 232 1.6 9.7 0.00 0.00 0.00 63 1012.9
20260505181024 13 235 3.2 9.7 0.00 0.00 0.00 62 1012.9
20260505180003 13 253 1.6 6.4 0.00 0.00 0.00 62 1012.7
20260505175003 13 251 3.2 11.3 0.00 0.00 0.00 62 1013.0
20260505174003 13 254 1.6 9.7 0.00 0.00 0.00 61 1013.0
20260505173003 14 247 3.2 9.7 0.00 0.00 0.00 62 1013.1
20260505172003 14 244 3.2 9.7 0.00 0.00 0.00 61 1013.1
20260505171003 14 249 3.2 11.3 0.00 0.00 0.00 60 1013.2
20260505170003 14 247 3.2 9.7 0.00 0.00 0.00 60 1013.1
20260505165003 14 254 3.2 11.3 0.00 0.00 0.00 62 1012.9
20260505164003 14 252 3.2 12.9 0.00 0.00 0.00 63 1013.0
20260505163024 15 258 3.2 11.3 0.00 0.00 0.00 60 1013.0
20260505162003 15 258 1.6 11.3 0.00 0.00 0.00 55 1013.0
20260505161003 15 273 3.2 11.3 0.00 0.00 0.00 57 1013.0
20260505153003 15 252 4.8 14.5 0.00 0.00 0.00 56 1013.2
20260505152024 15 258 4.8 12.9 0.00 0.00 0.00 56 1013.2
20260505151002 15 265 1.6 9.7 0.00 0.00 0.00 54 1013.1
20260505125002 15 260 3.2 12.9 0.00 0.00 0.00 53 1013.4
20260505124023 16 244 4.8 14.5 0.00 0.00 0.00 54 1013.2
20260505123002 16 258 3.2 12.9 0.00 0.00 0.00 53 1013.5
20260505122002 16 271 3.2 12.9 0.00 0.00 0.00 53 1013.3
20260505121002 16 234 4.8 12.9 0.00 0.00 0.00 54 1013.6
20260505120002 15 265 4.8 9.7 0.00 0.00 0.00 55 1013.5
20260505115002 15 270 3.2 9.7 0.00 0.00 0.00 56 1013.8
20260505114002 15 288 3.2 11.3 0.00 0.00 0.00 57 1013.6
20260505113002 14 271 3.2 11.3 0.00 0.00 0.00 58 1013.8
20260505112002 14 269 3.2 11.3 0.00 0.00 0.00 60 1013.7
20260505111002 14 270 3.2 11.3 0.00 0.00 0.00 59 1013.9
20260505102002 13 257 4.8 12.9 0.00 0.00 0.00 62 1014.3
20260505101023 13 268 3.2 11.3 0.00 0.00 0.00 61 1014.3
20260505100002 14 237 3.2 12.9 0.00 0.00 0.00 63 1013.9
20260505095002 13 249 3.2 12.9 0.00 0.00 0.00 63 1014.1
20260505094002 13 263 3.2 12.9 0.00 0.00 0.00 64 1014.3
20260505093003 13 252 3.2 11.3 0.00 0.00 0.00 65 1014.3
20260505092002 13 292 3.2 9.7 0.00 0.00 0.00 67 1014.0
20260505091002 13 304 3.2 14.5 0.00 0.00 0.00 66 1014.3
20260505090002 12 284 3.2 14.5 0.00 0.00 0.00 68 1014.5
20260505085002 12 285 3.2 11.3 0.00 0.00 0.00 70 1014.4
20260505084002 12 295 4.8 14.5 0.00 0.00 0.00 71 1014.6
20260505083002 12 279 3.2 9.7 0.00 0.00 0.00 72 1014.3
20260505082002 12 250 3.2 11.3 0.00 0.00 0.00 76 1014.5
20260505081002 10 259 1.6 4.8 0.00 0.00 0.00 81 1014.7
20260505080002 11 241 1.6 6.4 0.00 0.00 0.00 81 1014.7
20260505075002 11 250 1.6 6.4 0.00 0.00 0.00 81 1014.8
20260505074002 11 265 1.6 6.4 0.00 0.00 0.00 81 1014.7
20260505073002 10 246 3.2 9.7 0.00 0.00 0.00 81 1014.8
20260505072002 10 250 1.6 9.7 0.00 0.00 0.00 84 1014.6
20260505071002 10 243 1.6 4.8 0.00 0.00 0.00 84 1014.8
20260505070002 10 234 1.6 9.7 0.00 0.00 0.00 85 1015.0
20260505065002 10 243 0.0 4.8 0.00 0.00 0.00 86 1015.1
20260505064002 10 235 1.6 6.4 0.00 0.00 0.00 86 1014.6
20260505063002 10 239 1.6 4.8 0.00 0.00 0.00 88 1014.7
20260505062002 10 261 1.6 6.4 0.00 0.00 0.00 89 1014.4
20260505061002 10 291 1.6 6.4 0.00 0.00 0.00 90 1014.5
20260505060002 10 282 1.6 6.4 0.00 0.00 0.00 91 1014.3
20260505055002 10 267 1.6 4.8 0.00 0.00 0.00 93 1014.6
20260505054023 10 267 0.0 4.8 0.00 0.00 0.00 94 1014.4
20260505053002 10 264 0.0 4.8 0.00 0.00 0.00 94 1014.3
20260505052002 10 249 0.0 3.2 0.00 0.00 0.00 94 1014.5
20260505051002 10 252 0.0 3.2 0.00 0.00 0.00 94 1014.6
20260505041003 9 244 0.0 4.8 0.00 0.00 0.00 95 1014.8
20260505040003 9 248 1.6 4.8 0.00 0.00 0.00 96 1014.4
20260505035023 9 251 0.0 4.8 0.00 0.00 0.00 96 1014.1
20260505034002 8 247 0.0 3.2 0.00 0.00 0.00 96 1014.4
20260505033002 8 247 0.0 3.2 0.00 0.00 0.00 96 1014.3
20260505032002 8 230 1.6 3.2 0.00 0.00 0.00 96 1014.3
20260505031002 9 251 0.0 3.2 0.00 0.00 0.00 96 1014.3
20260505030003 9 229 0.0 4.8 0.00 0.00 0.00 96 1014.3
20260505025023 9 237 0.0 3.2 0.00 0.00 0.00 96 1014.3
20260505024002 9 262 0.0 1.6 0.00 0.00 0.00 96 1014.4
20260505023003 10 262 0.0 3.2 0.00 0.00 0.00 96 1014.4
20260505022003 10 240 0.0 3.2 0.00 0.00 0.00 96 1014.5
20260505021002 10 252 0.0 1.6 0.00 0.00 0.00 96 1014.7
20260505020002 10 257 0.0 3.2 0.00 0.00 0.00 95 1014.6
20260505015002 10 255 0.0 1.6 0.00 0.00 0.00 95 1014.8
20260505014003 10 247 0.0 1.6 0.00 0.00 0.00 95 1014.8
20260505013023 10 245 0.0 3.2 0.00 0.00 0.00 95 1014.5
20260505012002 10 253 0.0 1.6 0.00 0.00 0.00 95 1014.5
20260505011002 10 248 0.0 1.6 0.00 0.00 0.00 95 1014.5
20260505010003 11 0 0.0 0.0 0.00 0.00 0.00 95 1014.8
20260505005003 11 241 0.0 1.6 0.00 0.00 0.00 94 1014.6
20260505004003 11 0 0.0 1.6 0.00 0.00 0.00 94 1014.9
20260505003002 11 228 0.0 3.2 0.00 0.00 0.00 94 1014.8
20260505002002 11 250 0.0 3.2 0.00 0.00 0.00 93 1014.8
20260505001003 11 213 0.0 1.6 0.00 0.00 0.00 93 1014.7
20260505000024 11 243 0.0 3.2 0.00 0.00 0.00 92 1014.7
20260504235003 11 251 1.6 3.2 0.00 0.00 0.00 92 1014.7
20260504234003 12 256 0.0 3.2 0.00 0.00 0.00 92 1014.8
20260504233002 12 259 0.0 1.6 0.00 0.00 0.00 92 1014.8
20260504232003 12 260 0.0 1.6 0.00 0.00 0.00 92 1014.7
20260504231003 12 0 0.0 0.0 0.00 0.00 0.00 92 1014.8
20260504230003 12 0 0.0 0.0 0.00 0.00 0.00 92 1014.9
20260504225003 12 0 0.0 0.0 0.00 0.00 0.00 92 1015.0
20260504224003 12 0 0.0 0.0 0.00 0.00 0.00 92 1015.0
20260504223003 12 0 0.0 0.0 0.00 0.00 0.00 92 1014.9
20260504222003 12 0 0.0 0.0 0.00 0.00 0.00 92 1015.1
20260504221003 12 0 0.0 0.0 0.00 0.00 0.00 91 1014.8
20260504220003 12 0 0.0 0.0 0.00 0.00 0.00 90 1014.9
20260504215003 12 0 0.0 0.0 0.00 0.00 0.00 90 1015.0
20260504213003 13 0 0.0 0.0 0.00 0.00 0.00 88 1014.9
20260504212003 13 260 0.0 1.6 0.00 0.00 0.00 88 1015.0
20260504211003 13 255 0.0 3.2 0.00 0.00 0.00 87 1014.8
20260504210005 13 254 0.0 1.6 0.00 0.00 0.00 87 1014.9
20260504205003 13 0 0.0 0.0 0.00 0.00 0.00 86 1014.9
20260504204003 13 0 0.0 0.0 0.00 0.00 0.00 87 1014.8
20260504203003 13 0 0.0 0.0 0.00 0.00 0.00 87 1014.9
20260504202003 13 0 0.0 0.0 0.00 0.00 0.00 86 1014.8
20260504201024 13 0 0.0 0.0 0.00 0.00 0.00 86 1014.7
20260504200003 13 0 0.0 0.0 0.00 0.00 0.00 85 1014.8
20260504195003 13 0 0.0 0.0 0.00 0.00 0.00 85 1014.6
20260504194003 14 0 0.0 1.6 0.00 0.00 0.00 85 1014.4
20260504193003 14 252 0.0 1.6 0.00 0.00 0.00 85 1014.3
20260504192003 14 252 0.0 1.6 0.00 0.00 0.00 84 1014.3
20260504191003 15 247 0.0 1.6 0.00 0.00 0.00 84 1014.3
20260504190024 15 211 0.0 1.6 0.00 0.00 0.00 83 1014.0